Location: Melque
(41.0517°N, 4.4694°W)
Time: 17:34:49
(UTC+00:00)

Thor Agena Rocket - Pass Details

Date: 11 December 2025
Orbit: 754 x 803 km, 99.1° (Epoch: 15 January)

Event Time Altitude Azimuth Distance (km) Brightness Sun altitude
Rises 17:57:35 0° 177° (S) 3,286 7.0 -12.4°
Reaches altitude 10° 17:59:58 10° 182° (S) 2,356 6.3 -12.9°
Maximum altitude 18:05:03 53° 259° (W) 962 4.4 -13.8°
Drops below altitude 10° 18:10:06 10° 336° (NNW) 2,344 6.1 -14.7°
Sets 18:12:28 0° 341° (NNW) 3,268 6.8 -15.1°
